Location: Hamburg
(53.5511°N, 9.9937°E)
Time: 13:07:25
(UTC+02:00)

ISS - Visible Passes

Search period start: 25 June 2022 00:00
Search period end: 05 July 2022 00:00
Orbit: 414 x 420 km, 51.6° (Epoch: 25 June)

Date Brightness Start Highest point End Pass type
(mag) Time Alt. Az. Time Alt. Az. Time Alt. Az.
01 Jul -1.5 03:21:21 10° S 03:23:06 14° SE 03:24:51 10° ESE visible
03 Jul -2.4 03:20:38 14° SSW 03:22:45 24° SSE 03:25:33 10° E visible
04 Jul -2.1 02:33:47 17° SSE 02:34:33 18° SE 02:36:56 10° E visible
